User: anonymous   Login
Location: Unspecified
(0.0000°N, 0.0000°E)
Time: 20:54:13
(UTC+00:00)
Language:

UFO-8 - Orbit

View from above orbital plane
View from above orbital plane
View from above satellite
View from above satellite

Ground track
Ground track

The orbit data is extracted from the following two-line orbital elements,

1 25258U 98016A   18111.04273754 0.00000000  00000-0  00000-0 0    03
2 25258   7.8318  36.1520 0004966 324.0244  35.9251  1.00270000    07
Epoch (UTC): 21 April 2018 01:01:32
Eccentricity: 0.0004966
inclination: 7.8318°
perigee height: 35766 km
apogee height: 35807 km
right ascension of ascending node: 36.1520°
argument of perigee: 324.0244°
revolutions per day: 1.00270000
mean anomaly at epoch: 35.9251°
orbit number at epoch: 0

The dashed part of the orbit path shows where the satellite is in the earth's shadow,  

DLR